SCP
0 0 0 0 0 0 -0 0 0 0 0 0 0 0 0 0 0 0 0 0 0 0 0 0 1 1 1 0 0 0 0 0 0 0 0 0 0 0 0 0 0 0 0 0
0 0 0 0 0 0 0 0 0 0 0 0 0 0 0 0 0 0 0 0 0 0 0 0 1 1 1 1 0 0 0 0 0 0 0 0 0 0 0 0 0 0 0 0
0 0 0 0 0 0 0 0 0 0 0 0 0 0 0 0 0 0 0 0 0 0 0 0 1 1 1 1 1 0 0 0 0 0 0 0 0 0 0 0 0 0 0 0
0 0 0 0 0 0 0 0 0 0 0 0 0 0 0 0 0 0 0 0 0 0 0 0 1 1 1 1 1 1 0 0 0 0 0 0 0 0 0 0 0 0 0 0
0 0 0 0 0 0 0 0 0 0 0 0 0 0 0 0 0 0 0 0 0 0 0 0 1 1 1 1 1 1 1 1 0 0 0 0 0 0 0 0 0 0 0 0
0 0 0 0 0 0 0 0 0 0 0 0 0 0 0 0 0 0 0 0 0 0 0 1 1 1 1 1 1 1 1 1 1 0 0 0 0 0 0 0 0 0 0 0
0 0 0 0 0 0 0 0 0 0 0 0 0 0 0 0 0 0 0 0 0 1 1 1 1 1 1 1 1 1 1 1 1 1 0 0 0 0 0 0 0 0 0 0
0 0 0 0 0 0 0 0 0 0 0 0 0 0 0 0 0 0 0 0 1 1 1 1 1 1 1 1 1 1 1 1 1 1 0 0 0 0 0 0 0 0 0 0
0 0 0 0 0 0 0 0 0 0 0 0 0 0 0 0 0 0 0 0 1 1 1 1 1 1 1 1 1 1 1 1 1 1 1 0 0 0 0 0 0 0 0 0
0 0 0 0 0 0 0 0 0 0 0 0 0 0 0 0 0 0 0 0 0 1 1 1 1 1 1 1 1 1 1 1 1 1 1 1 0 0 0 0 0 0 0 0
0 0 0 0 0 0 0 0 0 0 0 0 0 0 0 0 0 0 0 0 0 0 0 1 1 1 1 1 1 1 1 1 1 1 1 1 1 0 0 0 0 0 0 0
0 0 0 0 0 0 0 0 0 0 0 0 0 0 0 0 0 0 0 0 0 0 0 1 1 1 1 1 1 1 1 1 1 1 1 1 1 0 0 0 0 0 0 0
0 0 0 0 0 0 0 0 0 0 0 0 0 0 0 0 0 0 0 0 0 0 0 1 1 1 1 1 1 1 1 1 1 1 1 1 1 0 0 0 0 0 0 0
0 0 0 0 0 0 0 0 0 0 0 0 0 0 0 0 0 0 0 0 0 0 0 1 1 1 1 1 1 1 1 1 1 1 1 1 1 0 0 0 0 0 0 0
0 0 0 0 0 0 0 0 0 0 0 0 0 0 0 0 0 0 0 0 0 0 1 1 1 1 1 1 1 1 1 1 1 1 0 0 0 0 0 0 0 0 0 0
0 0 0 0 0 0 0 0 0 0 0 0 0 0 0 0 0 0 0 0 0 0 0 1 1 1 1 1 1 1 0 0 0 0 0 0 0 0 0 0 0 0 0 0
0 0 0 0 0 0 0 0 0 0 0 0 0 0 0 0 0 0 0 0 0 0 0 0 0 1 0 0 0 0 0 0 0 0 0 0 0 0 0 0 0 0 0 0
0 0 0 0 0 0 0 0 0 0 0 0 0 0 0 0 0 0 0 0 0 0 0 0 0 0 0 0 0 0 0 0 0 0 0 0 0 0 0 0 0 0 0 0
0 0 0 0 0 0 0 0 0 0 0 0 0 0 0 0 0 0 0 0 0 0 0 0 0 0 0 0 0 0 0 0 0 0 0 0 0 0 0 0 0 0 0 0
0 0 0 0 0 0 0 0 0 0 0 0 0 0 0 0 0 0 0 0 0 0 0 0 0 0 0 0 0 0 0 0 0 0 0 0 0 0 0 0 0 0 0 0
0 0 0 0 0 0 0 0 0 0 0 0 0 0 0 0 0 0 0 0 0 0 0 0 0 0 0 0 0 0 0 0 0 0 0 0 0 0 0 0 0 0 0 0
0 0 0 0 0 0 0 0 0 0 0 0 0 0 0 0 0 0 0 0 0 0 0 0 0 0 0 0 0 0 0 0 0 0 0 0 0 0 0 0 0 0 0 0
0 0 0 0 0 0 0 0 0 0 0 0 0 0 0 0 0 0 0 0 0 0 0 0 0 0 0 0 0 0 0 0 0 0 0 0 0 0 0 0 0 0 0 0
0 0 0 0 0 0 0 0 0 0 0 0 0 0 0 0 0 0 0 0 0 0 0 0 0 0 0 0 0 0 0 0 0 0 0 0 0 0 0 0 0 0 0 0
0 0 0 0 0 0 0 0 0 0 0 0 0 0 0 0 0 0 0 0 0 0 0 0 0 0 0 0 0 0 0 0 0 0 0 0 0 0 0 0 0 0 0 0
0 0 0 0 0 0 0 0 0 0 0 0 0 0 0 0 0 0 0 0 0 0 0 0 0 0 0 0 0 0 0 0 0 0 0 0 0 0 0 0 0 0 0 0
Wind_Speed
3 4 5 7 6 5 5 4 1 3 2 1 2 3 4 8 8 9 9 9 11 12 9 9 11 11 10 9 9 10 9 8 7 5 4 4 3 3 3 3 5 5 5 5
4 3 6 5 4 3 3 2 1 2 1 1 1 3 3 8 12 13 13 13 13 10 9 11 11 11 12 12 12 11 10 9 9 7 5 3 3 2 3 3 3 5 5 6
6 4 6 6 5 4 3 4 3 2 3 3 2 4 1 3 5 6 8 10 9 11 12 11 12 13 12 13 13 12 11 10 9 7 4 3 2 1 2 3 3 5 6 6
4 4 4 5 5 6 4 5 5 3 2 2 2 1 5 4 4 7 9 9 10 9 9 10 11 12 13 13 11 10 10 9 8 8 8 8 6 5 6 4 4 4 5 6
6 4 5 5 6 8 6 3 3 2 3 1 1 2 7 1 5 10 12 11 10 9 10 11 12 12 10 10 10 9 9 9 8 9 9 9 7 5 3 3 4 4 4 6
5 3 5 7 5 6 5 6 6 6 5 0 3 4 7 5 9 8 9 10 9 9 9 9 8 8 8 8 9 9 10 9 9 10 9 9 9 7 5 5 5 4 3 4
2 2 3 4 4 3 5 6 4 3 3 5 3 3 10 7 6 7 9 9 8 8 9 9 9 9 9 10 10 10 10 10 9 9 9 9 8 8 8 6 6 5 3 4
5 4 5 5 7 7 6 10 9 6 5 4 1 5 8 5 3 4 5 5 6 7 8 9 10 9 9 9 10 10 11 10 10 9 8 7 7 6 5 6 5 5 5 5
7 5 4 5 5 11 7 5 7 8 3 1 3 6 8 2 2 1 2 3 5 7 8 9 8 8 9 9 10 11 10 9 9 8 7 6 6 6 5 5 4 4 3 3
8 3 3 2 4 3 7 10 7 7 6 2 3 4 5 4 4 2 2 4 5 5 6 6 6 7 7 7 7 8 8 8 7 7 7 6 5 5 5 4 4 4 4 3
5 4 2 2 5 7 5 5 6 6 6 7 3 7 6 6 5 4 3 3 4 4 5 5 5 6 6 6 6 7 7 7 7 7 6 5 5 5 5 4 5 4 3 4
5 6 1 4 3 4 6 8 9 7 4 4 5 8 4 4 4 4 3 2 3 3 3 4 4 5 6 6 6 6 6 6 6 6 6 5 5 4 4 4 4 4 3 3
7 6 3 3 3 2 3 4 5 7 7 5 5 7 3 0 1 2 3 3 4 4 4 3 4 5 5 6 6 5 6 5 5 5 5 5 4 4 5 4 4 3 3 2
7 6 6 8 7 4 4 3 5 7 6 5 7 6 4 3 3 2 2 3 4 4 4 4 4 4 4 5 6 5 5 5 5 5 5 4 4 4 4 3 3 2 2 2
6 5 3 3 2 3 3 5 6 5 8 9 8 8 8 7 5 4 4 4 5 5 5 5 5 5 4 4 4 5 5 4 5 5 5 4 3 3 3 2 2 1 1 2
4 5 3 0 0 2 2 2 5 4 4 4 3 6 5 3 4 4 5 6 6 5 6 6 6 6 5 4 4 4 5 4 5 5 4 3 3 3 3 2 2 2 1 1
3 5 4 1 1 3 1 3 4 3 3 6 7 7 4 4 6 7 7 6 6 6 6 6 6 5 5 4 4 4 4 4 4 4 3 3 3 3 2 2 2 1 1 1
6 5 4 3 3 3 5 2 2 3 2 3 3 3 5 5 4 3 4 6 6 5 5 5 5 5 4 4 4 4 5 5 4 4 3 2 2 2 2 2 2 2 2 2
4 7 5 4 3 1 2 1 1 2 2 2 2 3 4 7 5 2 1 4 5 6 5 5 5 5 5 5 4 5 5 4 4 3 3 2 2 3 3 2 2 2 2 2
4 5 6 5 4 5 6 2 1 2 2 2 3 6 8 7 4 3 3 5 6 6 6 6 6 6 6 4 3 5 4 4 3 3 2 3 3 3 2 2 2 2 2 2
4 4 4 4 3 5 4 3 1 5 6 2 3 5 7 4 4 5 7 6 6 7 7 7 7 6 5 4 5 6 5 3 2 3 4 4 3 3 3 3 2 2 3 3
4 4 4 4 3 6 3 1 4 4 1 1 3 4 4 5 7 8 8 8 8 8 7 7 8 7 5 5 6 6 5 3 4 4 5 5 4 4 4 4 4 3 3 4
3 5 5 6 6 3 2 1 2 1 1 1 3 4 7 8 8 8 8 9 8 8 7 6 8 8 7 6 6 7 5 4 6 6 6 6 6 6 5 5 4 4 3 3
1 1 2 1 2 2 1 1 2 0 1 2 4 6 7 8 9 9 9 9 8 7 7 7 9 9 7 6 7 6 5 5 7 7 6 6 7 7 7 5 5 4 4 4
2 1 2 1 2 1 2 1 1 2 3 4 4 5 7 10 10 10 9 9 8 7 6 7 8 8 7 7 7 6 6 6 8 7 7 7 7 7 7 7 7 6 6 4
2 3 3 4 4 3 2 1 0 2 3 5 6 6 7 8 10 10 9 8 9 8 7 8 8 8 7 7 7 6 5 6 7 7 6 5 5 6 6 6 8 14 11 13
Wind_Direction
122 105 177 189 175 164 147 135 174 252 277 126 202 225 197 181 178 183 190 193 199 204 191 182 181 182 178 177 176 183 185 177 165 163 170 176 191 191 195 205 200 192 188 181
82 220 203 169 163 146 146 141 206 312 350 122 210 275 229 187 194 195 195 200 202 194 181 184 184 184 185 185 184 186 190 182 180 182 174 168 164 177 190 202 199 195 191 186
162 217 170 153 156 163 179 177 189 208 3 26 90 338 283 226 215 211 212 210 206 200 194 188 187 189 189 190 189 192 191 187 187 174 152 133 114 110 166 198 203 200 195 197
200 226 158 161 179 155 218 209 180 163 99 308 88 274 276 235 226 222 221 212 210 206 198 190 190 192 195 195 189 186 186 187 185 174 172 170 180 193 201 197 199 198 200 200
212 194 168 184 193 161 198 182 156 144 141 79 13 166 278 225 230 235 226 217 212 203 197 197 196 196 195 188 185 183 182 185 184 185 185 184 191 195 182 179 191 204 208 207
209 211 184 193 185 168 148 77 58 51 79 162 226 170 265 224 216 232 226 216 209 199 195 194 191 183 182 180 180 180 182 186 185 188 190 194 193 186 180 190 197 206 211 213
212 243 219 169 134 130 115 96 53 22 32 241 254 187 247 245 230 230 226 214 202 190 186 182 181 183 184 182 183 183 184 187 186 189 194 199 199 192 194 197 201 203 211 217
167 242 220 184 166 162 163 141 154 174 197 253 268 225 254 264 261 247 230 207 184 182 184 186 187 180 183 185 181 180 186 189 185 189 195 197 197 195 199 199 198 202 212 219
166 233 261 206 173 141 137 170 156 125 139 122 274 282 298 291 306 285 199 161 175 182 182 184 180 173 178 183 184 182 183 185 188 191 190 196 198 196 197 194 194 201 210 216
151 198 270 216 104 65 143 143 113 123 140 195 283 272 249 258 253 242 206 187 185 176 174 176 172 174 177 178 176 173 178 182 181 181 185 193 197 196 192 184 194 204 208 212
136 151 310 87 160 161 112 106 110 114 144 149 197 262 233 220 221 217 223 202 183 178 177 173 173 169 159 157 160 166 171 172 176 181 182 184 186 191 186 190 200 206 209 208
139 120 223 260 254 168 147 156 144 144 178 158 159 259 275 218 219 199 196 182 164 166 169 165 162 150 145 151 157 158 160 168 175 173 169 177 177 178 188 198 201 199 207 212
138 118 95 2 358 55 112 136 133 119 117 145 159 256 302 44 186 186 176 169 161 160 152 140 137 140 147 149 151 152 156 160 158 154 157 163 170 177 190 195 191 191 201 211
120 115 152 179 203 176 147 143 140 122 138 178 207 233 271 246 205 192 172 162 151 144 139 135 134 135 141 145 144 143 146 150 149 143 144 163 188 185 183 178 172 180 189 198
109 133 176 210 211 157 157 166 164 164 172 175 212 215 234 220 197 178 160 146 133 128 124 124 125 121 125 129 131 133 135 135 141 141 153 172 175 161 149 149 153 158 180 206
81 132 136 50 101 138 119 165 176 182 175 190 191 236 244 189 143 148 154 151 143 137 132 128 126 126 131 134 133 130 127 127 131 137 143 141 136 138 142 142 143 150 172 176
93 116 115 199 293 86 233 226 186 179 183 173 198 224 177 168 173 176 170 159 152 148 144 140 133 130 131 127 122 128 120 114 118 120 119 122 130 129 144 139 131 146 157 119
128 109 116 127 108 186 237 264 202 165 201 223 226 205 180 176 150 136 154 155 148 138 132 126 125 121 113 109 104 106 107 116 121 117 112 113 118 113 113 105 112 115 102 102
140 128 115 120 141 239 281 285 102 157 255 267 198 156 128 117 86 60 117 141 144 135 128 122 117 111 102 98 110 113 109 113 109 107 106 102 102 107 112 109 112 117 108 97
66 93 111 122 138 202 233 250 278 134 275 274 181 164 152 132 141 203 147 124 119 113 112 112 107 98 94 90 110 114 111 108 107 107 105 93 91 104 118 124 116 105 102 94
63 64 107 134 165 248 255 291 111 159 233 242 170 167 157 159 175 141 124 117 114 110 105 106 103 96 92 96 106 107 102 96 91 90 90 85 84 93 100 93 87 91 95 88
150 139 156 140 160 242 292 28 174 207 251 139 137 146 138 125 117 119 122 120 115 108 102 102 98 88 79 84 95 92 82 77 84 87 86 83 77 79 84 88 81 79 93 94
183 181 173 177 201 240 276 239 267 203 174 167 139 133 134 130 129 125 120 115 109 105 101 100 103 93 75 70 88 92 76 78 83 82 80 80 78 72 71 80 82 78 78 85
292 138 136 189 265 284 314 346 350 346 163 131 137 139 134 132 130 122 119 117 109 101 102 101 99 92 80 69 70 80 81 84 87 84 78 78 81 74 64 59 60 67 64 73
240 163 136 202 269 336 343 331 333 66 93 105 108 122 134 132 129 124 120 115 109 102 95 95 95 92 85 76 71 68 76 89 89 86 83 80 79 81 74 66 58 63 53 59
222 187 174 211 214 190 240 287 11 112 117 124 118 105 106 119 120 116 113 109 107 103 98 93 92 91 83 80 73 62 66 87 97 92 86 84 85 84 85 86 74 58 62 60